Airfield :
LOGIN :

Register | Disclaimer

   EN    FR    IT 

 










Legend :    VFR   Marginal VFR   IFR   Intensive IFR   Very Intensive IFR
Visi :
Ceiling :
>= 8 km
>= 3000ft
5 to 8 km
1000 to 3000 ft
1500m to 5 km
500 to 1000 ft
800 to 1500m
200 to 500 ft
< 800m
< 200 ft
Symbols :   Thunderstorms  Fog  Heavy snow  Heavy precipitations  Wind > 20 kt
SIGMETs :     Misc.  Thunderstorms  Icing  Turbulence  Mountain Waves  Volcanic Ashes







- Airport Elevation : 353 ft
- IATA code : ZAG


LDZA - Zagreb Pleso

CURRENT METAR :
  • 271330Z 03008KT 320V120 CAVOK 26/09 Q1019 NOSIG

EXPIRED METARs :
  • 271300Z 03010KT 330V100 CAVOK 25/09 Q1020 NOSIG
  • 271230Z 05008KT 340V150 CAVOK 26/08 Q1020 NOSIG
  • 271200Z 07006KT 350V130 CAVOK 25/09 Q1020 NOSIG
  • 271130Z VRB08KT CAVOK 24/09 Q1020 BECMG 05008KT
  • 271100Z 06008KT 350V130 CAVOK 25/09 Q1020 NOSIG

TAF TAF LDZA
Valid from the 27 at 12:00 until the 28 at 12:00 UTC


271125Z 2712/2812 05008KT CAVOK TX27/2811Z TN12/2803Z
BECMG 2718/2720 VRB02KT
ATIS : +385 1 6-259-214
No reported NOTAMs for that airfield.



MET'MAP, your aeronautical weather chart ! - Copyright ORBIFLY December 2007 - Disclaimer

ORBIFLY MET'MAP TEAM :

Programming & Development : Alexandra Zaïnal
Concept & Development : Baudouin d'Aumeries
Co-Development & Prog : Marc-Olivier Méhu
Technical & hardware support : Manuel Goepfert

Contact : metmap@orbifly.com




SOURCES & CREDITS :

   NOAA